Date String (YYYY-MM-DD hh:mm:ss) UTC,Instrument flags,absolute air pressure of the measurement (hPa),sample flow rate (lpm),inlet stack bypass flow (lpm),air temperature of the measurement (°C),ambient temperature measured by the external sensor (°C),aerosol sample conditioner tube jacket temperature (°C),OPC LED temperature (°C),internal box temperature (°C),relative humidity of the measurement (%),span deviation,mass concentration of particles derived from Lorenz-Mie calculation of OPC scattering (μg/m³),mass concentration of particles derived from Lorenz-Mie calculation of OPC scattering (μg/m³),mass concentration of particles derived from Lorenz-Mie calculation of OPC scattering (μg/m³)
DateTimeUTC,F1_M11,P_M11,Q1_M11,Q2_M11,T1_M11,T2_M11,T3_M11,T4_M11,T5_M11,U1_M11,ZSPAN_M11,X0_M11,X2_M11,X1_M11
2024-03-09 18:00:00,SystemResetWarning,0832.2,5.00,000.00,018.8,018.4,000.0,027.1,020.5,17.8,0000.0,0006.78,0003.74,0003.48
2024-03-09 18:01:00,SystemResetWarning,0832.2,5.01,000.00,018.8,018.4,000.0,027.1,020.5,17.6,0000.0,0006.74,0003.75,0003.50
2024-03-09 18:02:00,SystemResetWarning,0832.2,5.00,000.00,018.8,018.4,000.0,027.1,020.5,19.0,0000.0,0007.21,0003.77,0003.52
2024-03-09 18:03:00,SystemResetWarning,0832.2,5.00,000.00,018.8,018.4,000.0,027.1,020.5,19.0,0000.0,0006.67,0003.75,0003.52
2024-03-09 18:04:00,SystemResetWarning,0832.2,5.00,000.00,018.8,018.4,000.0,027.1,020.5,18.2,0000.0,0006.68,0003.76,0003.52
2024-03-09 18:05:00,SystemResetWarning,0832.2,4.99,000.00,018.8,018.4,000.0,027.1,020.6,18.2,0000.0,0006.81,0003.78,0003.52
2024-03-09 18:06:00,SystemResetWarning,0832.1,4.99,000.00,018.8,018.4,000.0,027.2,020.6,17.7,0000.0,0007.74,0003.79,0003.53
2024-03-09 18:07:00,SystemResetWarning,0832.2,5.00,000.00,018.8,018.4,000.0,027.2,020.6,18.8,0000.0,0007.90,0003.83,0003.55
2024-03-09 18:08:00,SystemResetWarning,0832.2,5.01,000.00,018.8,018.4,000.0,027.2,020.6,18.0,0000.0,0007.88,0003.83,0003.56
2024-03-09 18:09:00,SystemResetWarning,0832.1,5.00,000.00,018.8,018.4,000.0,027.2,020.6,18.2,0000.0,0007.76,0003.83,0003.55
2024-03-09 18:10:00,SystemResetWarning,0832.1,5.00,000.00,018.9,018.4,000.0,027.2,020.6,18.1,0000.0,0007.62,0003.84,0003.54
2024-03-09 18:11:00,SystemResetWarning,0832.1,5.01,000.00,018.9,018.4,000.0,027.2,020.6,17.8,0000.0,0007.58,0003.84,0003.54
2024-03-09 18:12:00,SystemResetWarning,0832.0,5.01,000.00,018.9,018.5,000.0,027.2,020.6,18.2,0000.0,0007.55,0003.83,0003.55
2024-03-09 18:13:00,SystemResetWarning,0832.1,5.00,000.00,018.9,018.5,000.0,027.2,020.7,18.6,0000.0,0007.16,0003.82,0003.55
2024-03-09 18:14:00,SystemResetWarning,0832.0,5.00,000.00,018.9,018.5,000.0,027.2,020.7,18.1,0000.0,0007.16,0003.82,0003.54
2024-03-09 18:15:00,SystemResetWarning,0832.0,4.99,000.00,018.9,018.5,000.0,027.2,020.7,19.0,0000.0,0007.14,0003.83,0003.55
2024-03-09 18:16:00,SystemResetWarning,0832.0,5.00,000.00,018.9,018.5,000.0,027.2,020.7,19.1,0000.0,0008.05,0003.85,0003.56
2024-03-09 18:17:00,SystemResetWarning,0832.0,4.99,000.00,018.9,018.5,000.0,027.3,020.7,18.4,0000.0,0007.72,0003.85,0003.56
2024-03-09 18:18:00,SystemResetWarning,0832.0,5.00,000.00,019.0,018.5,000.0,027.3,020.7,18.2,0000.0,0008.08,0003.84,0003.56
2024-03-09 18:19:00,SystemResetWarning,0832.0,5.00,000.00,019.0,018.5,000.0,027.3,020.7,18.2,0000.0,0007.99,0003.83,0003.57
2024-03-09 18:20:00,SystemResetWarning,0832.0,5.00,000.00,019.0,018.6,000.0,027.3,020.7,17.8,0000.0,0008.01,0003.86,0003.60
2024-03-09 18:21:00,SystemResetWarning,0832.0,5.01,000.00,019.0,018.6,000.0,027.3,020.7,17.7,0000.0,0007.98,0003.89,0003.65
2024-03-09 18:22:00,SystemResetWarning,0832.0,5.00,000.00,019.0,018.6,000.0,027.3,020.7,17.2,0000.0,0008.10,0003.95,0003.69
2024-03-09 18:23:00,SystemResetWarning,0831.9,5.00,000.00,019.0,018.6,000.0,027.3,020.7,16.8,0000.0,0008.15,0003.99,0003.71
2024-03-09 18:24:00,SystemResetWarning,0832.0,5.00,000.00,019.0,018.6,000.0,027.3,020.8,17.6,0000.0,0008.16,0004.00,0003.73
2024-03-09 18:25:00,SystemResetWarning,0832.0,5.00,000.00,019.0,018.6,000.0,027.3,020.8,17.7,0000.0,0008.27,0004.02,0003.76
2024-03-09 18:26:00,SystemResetWarning,0831.9,4.99,000.00,019.0,018.6,000.0,027.3,020.8,17.5,0000.0,0008.40,0004.06,0003.80
2024-03-09 18:27:00,SystemResetWarning,0831.9,4.99,000.00,019.0,018.6,000.0,027.3,020.8,17.2,0000.0,0007.93,0004.08,0003.84
2024-03-09 18:28:00,SystemResetWarning,0831.9,4.99,000.00,019.1,018.6,000.0,027.4,020.8,17.5,0000.0,0007.52,0004.12,0003.87
2024-03-09 18:29:00,SystemResetWarning,0832.0,5.00,000.00,019.1,018.7,000.0,027.4,020.8,17.7,0000.0,0006.27,0004.13,0003.91
2024-03-09 18:30:00,SystemResetWarning,0831.9,5.00,000.00,019.1,018.7,000.0,027.4,020.8,18.2,0000.0,0006.41,0004.17,0003.94
2024-03-09 18:31:00,SystemResetWarning,0831.9,5.00,000.00,019.1,018.7,000.0,027.4,020.8,17.7,0000.0,0006.61,0004.23,0003.96
2024-03-09 18:32:00,SystemResetWarning,0831.9,5.00,000.00,019.1,018.7,000.0,027.4,020.9,18.2,0000.0,0006.71,0004.26,0003.97
2024-03-09 18:33:00,SystemResetWarning,0831.9,5.00,000.00,019.1,018.7,000.0,027.4,020.9,18.6,0000.0,0006.81,0004.27,0003.98
2024-03-09 18:34:00,SystemResetWarning,0831.9,5.00,000.00,019.1,018.7,000.0,027.4,020.9,19.3,0000.0,0006.91,0004.29,0003.99
2024-03-09 18:35:00,SystemResetWarning,0831.9,5.00,000.00,019.1,018.7,000.0,027.4,020.9,18.9,0000.0,0006.94,0004.31,0004.00
2024-03-09 18:36:00,SystemResetWarning,0831.9,5.00,000.00,019.1,018.8,000.0,027.4,020.9,18.1,0000.0,0007.63,0004.32,0004.02
2024-03-09 18:37:00,SystemResetWarning,0831.8,5.00,000.00,019.2,018.8,000.0,027.4,020.9,17.8,0000.0,0007.57,0004.33,0004.03
2024-03-09 18:38:00,SystemResetWarning,0831.8,5.00,000.00,019.2,018.8,000.0,027.5,020.9,18.1,0000.0,0007.78,0004.33,0004.03
2024-03-09 18:39:00,SystemResetWarning,0831.8,5.00,000.00,019.2,018.8,000.0,027.5,020.9,18.3,0000.0,0008.22,0004.32,0004.03
2024-03-09 18:40:00,SystemResetWarning,0831.8,4.99,000.00,019.2,018.8,000.0,027.5,020.9,17.7,0000.0,0008.18,0004.33,0004.03
2024-03-09 18:41:00,SystemResetWarning,0832.3,5.00,000.00,019.2,018.8,000.0,027.5,020.9,17.5,0000.0,0008.15,0004.32,0004.03
2024-03-09 18:42:00,SystemResetWarning,0832.0,5.00,000.00,019.2,018.8,000.0,027.5,020.9,17.7,0000.0,0008.16,0004.33,0004.04
2024-03-09 18:43:00,SystemResetWarning,0832.0,5.00,000.00,019.2,018.8,000.0,027.5,021.0,17.2,0000.0,0008.11,0004.32,0004.05
2024-03-09 18:44:00,SystemResetWarning,0832.2,5.00,000.00,019.2,018.8,000.0,027.5,021.0,17.5,0000.0,0008.02,0004.31,0004.06
2024-03-09 18:45:00,SystemResetWarning,0832.0,5.00,000.00,019.2,018.8,000.0,027.5,021.0,17.0,0000.0,0007.99,0004.32,0004.07
2024-03-09 18:46:00,SystemResetWarning,0831.7,5.00,000.00,019.3,018.8,000.0,027.5,021.0,16.8,0000.0,0008.03,0004.34,0004.09
2024-03-09 18:47:00,SystemResetWarning,0831.7,5.01,000.00,019.3,018.9,000.0,027.5,021.0,17.1,0000.0,0007.56,0004.37,0004.11
2024-03-09 18:48:00,SystemResetWarning,0831.7,5.00,000.00,019.3,018.9,000.0,027.5,021.0,17.0,0000.0,0007.41,0004.39,0004.13
2024-03-09 18:49:00,SystemResetWarning,0831.7,5.00,000.00,019.3,018.9,000.0,027.6,021.0,16.9,0000.0,0007.49,0004.40,0004.15
2024-03-09 18:50:00,SystemResetWarning,0831.7,5.00,000.00,019.3,018.9,000.0,027.6,021.0,16.9,0000.0,0006.77,0004.42,0004.16
2024-03-09 18:51:00,SystemResetWarning,0831.7,5.00,000.00,019.3,018.9,000.0,027.6,021.1,17.2,0000.0,0007.51,0004.45,0004.18
2024-03-09 18:52:00,SystemResetWarning,0831.7,4.99,000.00,019.3,018.9,000.0,027.6,021.1,17.3,0000.0,0008.11,0004.46,0004.20
2024-03-09 18:53:00,SystemResetWarning,0831.6,4.99,000.00,019.3,019.0,000.0,027.6,021.1,17.1,0000.0,0008.27,0004.46,0004.21
2024-03-09 18:54:00,SystemResetWarning,0831.6,5.00,000.00,019.4,019.0,000.0,027.6,021.1,16.7,0000.0,0008.42,0004.48,0004.22
2024-03-09 18:55:00,SystemResetWarning,0831.6,5.00,000.00,019.4,019.0,000.0,027.6,021.1,16.9,0000.0,0008.46,0004.49,0004.22
2024-03-09 18:56:00,SystemResetWarning,0831.6,5.00,000.00,019.4,019.0,000.0,027.6,021.1,16.5,0000.0,0008.47,0004.49,0004.23
2024-03-09 18:57:00,SystemResetWarning,0831.6,5.01,000.00,019.4,019.0,000.0,027.7,021.1,17.1,0000.0,0008.49,0004.50,0004.24
2024-03-09 18:58:00,SystemResetWarning,0831.6,5.00,000.00,019.4,019.0,000.0,027.7,021.2,16.8,0000.0,0008.66,0004.50,0004.24
2024-03-09 18:59:00,SystemResetWarning,0831.6,5.00,000.00,019.4,019.0,000.0,027.7,021.2,18.0,0000.0,0008.90,0004.52,0004.24
